Rbgn^[z[y[W
メイン
   新天体発見情報
     Comet P/2005 SB216 = 2024 Q2 (LONEOS)
投稿するにはまず登録を

フラット表示 前のトピック | 次のトピック
投稿者 スレッド
佐藤裕久
投稿日時: 2024-9-17 13:55
モデレータ
登録日: 2005-6-12
居住地: 日本
投稿: 2676
オンライン
Comet P/2005 SB216 = 2024 Q2 (LONEOS)

Martin Masek (チェコ科学アカデミー物理学研究所)は、8月30日、31日と9月1日、2日、La Palma 
の0.25-m f/6.8 反射望遠鏡で得た画像から、P/2005 SB216 (IAUC 8668を)を検出した。
Masekは、初日の夜、3".5-4".2のシーイングで、天体は恒星のように見える(ただし、彗星の頭部
は4".9 (半値全幅: FWHM)ほどある)と指摘した。
また、Michael S. P. Kelley (メリーランド大学)は8月2日と8月中、Palomar Mountain--ZTFの
1.2-m Schmidt望遠鏡で得た画像から独立して検出した。
Michael S. P. Kelley (メリーランド大学)の報告によると、8月2日〜29日の十数夜、G. Helouと
T. A. Princeの追加観測者と共に行ったPalomarの1.2-m Schmidt望遠鏡(+ZTFカメラ)によるCCD観測
で得た画像から独立して検出した。
彗星は恒星のように見え、i光度とr光度は概ね20.0〜20.5等、g光度は概ね21等程度であった。 
8月25.4日UT、2枚30秒のrバンド画像では、2'.1のシーイングで、頭部は3".0(FWHM)、限界光度(5σ)
は20.5等であった。
NK 1828 (= ICQ's Comet Handbook 2024)の中野主一氏の予報に対する修正値は、Delta(T) = 
-0.18 dayであった。
MPC 75706の予報に対する修正値は、Delta(T) = -0.24 dayであった。
彗星年表 2023の佐藤裕久の参考軌道要素の修正値は、Delta(T) =  -0.19 dayであった。

検出位置は次のとおり、

     2024 UT             R.A. (2000) Decl.       Mag.   Observer
     Aug. 30.13457    1 16 28.15   +15 46 14.5   19.6   Masek
          30.16469    1 16 27.50   +15 46 20.0   19.6     "
          30.19810    1 16 26.93   +15 46 24.8   19.8     "
          30.99335    1 16 12.30   +15 48 28.8   19.5     "
          31.05286    1 16 11.12   +15 48 37.5   19.6     "
     Sept. 1.04281    1 15 52.03   +15 51 08.0   19.5     "
           1.09740    1 15 50.89   +15 51 16.1   19.6     "

MPCの連結軌道要素、位置推算表は次のとおり、

Orbital elements:
    P/2005 SB216 (LONEOS)                                                       
Epoch 2024 Oct. 17.0 TT = JDT 2460600.5                                         
T 2026 Jan. 14.21388 TT                                 Rudenko                 
q   3.8234450            (2000.0)            P               Q                  
n   0.05144912     Peri.   83.19620     +0.10079910     -0.99487498             
a   7.1595227      Node     1.11580     +0.67207245     +0.06219198             
e   0.4659637      Incl.   24.11695     +0.73359264     +0.07972407             
P  19.2                                                                         
From 527 observations 2005 Sept. 23-2024 Sept. 3, mean residual 0".7.           
                                                                                
Ephemeris:
Date    TT    R. A. (2000) Decl.     Delta      r    Elong.  Phase   m1
2024 08 06    01 19 53.4 +14 24 02   4.4219  4.8594   109.8    11.3  20.1
...
2024 08 21    01 18 41.0 +15 19 23   4.1733  4.8117   123.9    10.0  19.9
...
2024 08 29    01 16 48.3 +15 43 13   4.0540  4.7864   131.8     9.1  19.8
...
2024 09 04    01 14 50.3 +15 58 11   3.9723  4.7675   137.8     8.2  19.8
2024 09 05    01 14 27.9 +16 00 26   3.9595  4.7644   138.8     8.0  19.8
2024 09 06    01 14 04.8 +16 02 36   3.9468  4.7613   139.8     7.9  19.8
...
2024 09 12    01 11 31.2 +16 14 02   3.8756  4.7425   145.9     6.8  19.7
...
2024 09 20    01 07 30.3 +16 25 06   3.7945  4.7177   154.0     5.4  19.6
...
2024 10 05    00 58 36.7 +16 33 09   3.6898  4.6715   167.6     2.6  19.5

(MPEC 2024-R78、CBET 5439、oaa-comet 6930)

フラット表示 前のトピック | 次のトピック

題名 投稿者 日時
 » Comet P/2005 SB216 = 2024 Q2 (LONEOS) 佐藤裕久 2024-9-17 13:55

投稿するにはまず登録を
 
© 1999 Tsutomu Seki.